Location: Chandolas
(44.4033°N, 4.2533°E)
Time: 18:23:24
(UTC+00:00)

Cosmos 1892 - Pass Details

Date: 15 November 2019
Orbit: 504 x 525 km, 82.5° (Epoch: 10 December)

Event Time Altitude Azimuth Distance (km) Brightness Sun altitude
Rises 06:02:21 0° 228° (SW) 2,614 6.0 -6.8°
Reaches altitude 10° 06:05:08 10° 250° (WSW) 1,729 4.9 -6.3°
Maximum altitude 06:07:32 16° 290° (WNW) 1,393 4.2 -5.9°
Drops below altitude 10° 06:09:57 10° 329° (NNW) 1,732 4.9 -5.5°
Sets 06:12:45 0° 352° (N) 2,620 6.0 -5.1°
